Погода в Симферополе

Хотите узнать прогноз погоды в Симферополе? Тогда Вам сюда: Погода в Симферополе

Поиск расширенной информации на нашем сайте:

Полезная информация:

Новости сайта



14.11.2019
Обновлён Долгосрочный прогноз погоды по России и другим странам хСССР на ноябрь-декабрь 2019 года.
Опубликованы прогностические карты: Предварительный прогноз на декабрь 2019 года, Предварительный прогноз на январь 2020 года, Предварительная схема синоптических процессов на декабрь 2019 г..

11.11.2019
Обновлены Долгосрочный прогноз погоды по России и другим странам хСССР на ноябрь-декабрь 2019 года и Предварительный прогноз на зиму 2019/2020 годов

04.11.2019
Опубликован Долгосрочный прогноз погоды по России и другим странам хСССР на ноябрь 2019 года
Сравнение прогнозируемой аномалии приземной температуры воздуха на ноябрь 2019 года по разным моделям
Предварительный прогноз на зиму 2019/2020 года




Погода в Симферополе - сегодня

Время (UTC), дата Ветер
(°,м/с) 
Видим.   Явления Облачность Т
(°С)
Тd
(°С)
f(%) Тe
(°С)
Pmin
(гПа)
dP
(гПа)
Po
(мм)
O2
(г/м3)
Тmin Tmax R s Состояние
почвы
00 20.11.19 070 (В) 1800 м  в посл. час туман  10/10 180 м 
[St]
+1.9 +1.8 99 -1  1027.1  -0.3  753  301           
03 20.11.19 080 (В) 1400 м  слаб. морось  10/10 100 м 
[St]
+2.9 +2.8 99 1027.2  0.1  753  300  +1.7         
06 20.11.19 070 (В) 1400 м  слаб. морось  10/10 100 м 
[St]
+3.9 +3.7 99 +1  1027.4  0.3  754  299  +1.7    0.1     
09 20.11.19 060 (СВ) 10 км  {морось}  10/10 300 м 
[St]
+6.3 +4.3 87 +4  1026.5  -0.7  753  296           
12 20.11.19 070 (В) 8-10{10}  10 км  {морось}  3/0 верхняя 
[Ci fib]
+8.3 +3.2 70 +6  1025.3  -1  752  294           
15 20.11.19 060 (СВ) 7-10{11}  10 км    10/1 200 м верхняя 
[St|Ci fib]
+5.4 +4.4 93 +3  1025.8  0.3  753  297      0.1     
18 20.11.19 070 (В) 10  10 км    10/10 450 м 
[St]
+6.4 +4.2 86 +3  1025.4  -0.3  752  296    +9.1  0.0     
21 20.11.19 070 (В) 8{13}  10 км    10/10 500 м 
[Sc]
+6.9 +6 94 +4  1025.3  -0.1  752  295           
00 21.11.19 080 (В) 10-13{15}  10 км    10/10 330 м 
[St]
+5.4 +3.7 89 +2  1025.8  0.4  753  297           
03 21.11.19 080 (В) 11  10 км    10/10 300 м 
[Sc]
+4.1 +2 86 1026.2  0.3  753  299  +4.1         
06 21.11.19 080 (В) 12  10 км    10/10 400 м 
[St]
+3.8 +0.8 81 -1  1026.9  0.6  753  299  +3.7         
09 21.11.19 080 (В) 14-20{20}  10 км    10/10 330 м 
[St]
+2.6 -0.3 81 -3  1027.1  0.1  753  301           
12 21.11.19 070 (В) 15-18{20}  10 км    10/10 330 м 
[St]
+1.8 -1.1 81 -4  1026.9  -0.3  753  302           
15 21.11.19 070 (В) 14-19  10 км    10/10 420 м 
[St]
+1 -1.9 81 -5  1026.8  -0.1  753  303           
18 21.11.19 080 (В) 14  10 км    10/10 540 м 
[St]
+0.1 -3.8 75 -6  1027.2  0.3  753  304    +3.9       
21 21.11.19 080 (В) 14-19{20}  10 км    10/10 450 м 
[St]
-1.2 -4.9 76 -7  1027  -0.3  753  305           
00 22.11.19 080 (В) 11-16{19}  10 км    10/10 360 м 
[St]
-2.2 -4.9 82 -8  1027  -0.1  753  306           
03 22.11.19 070 (В) 15  10 км    10/10 300 м 
[St]
-2.8 -5 85 -10  1025.5  -1.5  752  307  -2.9         
06 22.11.19 070 (В) 11-14  10 км    10/3 300 м верхняя 
[St|Ci fib]
-3.5 -6.1 82 -10  1026.8  1.2  753  308  -3.5         
09 22.11.19 070 (В) 13-16{16}  10 км    3/3 300 м 
[St]
+0.7 -4.9 66 -5  1025.2  -1.2  752  303           
12 22.11.19 080 (В) 11-15{16}  10 км    9/9 360 м 
[St]
+1.8 -4.5 63 -3  1024.9  -0.2  752  301           
15 22.11.19 070 (В) 11-14  10 км    10/10 1380 м 
[Sc]
+1.1 -4.9 64 -4  1025.3  0.3  752  302           
18 22.11.19 060 (СВ) 10-13{16}  10 км    ясно 
+0.2 -5.2 67 -5  1025.4  752  303    +2.6       
21 22.11.19 070 (В) 10-13{15}  10 км    ясно 
-1.7 -5.7 74 -7  1025.3  -0.2  752  305           
00 23.11.19 070 (В) 9-12{14}  10 км    ясно 
-3.1 -5.9 81 -8  1025.7  0.2  752  307           
Время (UTC), дата Ветер
(°,м/с) 
Видим.   Явления Облачность Т
(°С)
Тd
(°С)
f(%) Тe
(°С)
Pmin
(гПа)
dP
(гПа)
Po
(мм)
O2
(г/м3)
Тmin Tmax R s Состояние
почвы

Для получения пояснительной информации подведите курсор к названию столбца.

ПОГОДА в Симферополе - архив

Всё, что Вы хотите узнать о погоде в Симферополе - удобно и подробно!

Выберите нужную дату (начиная с 1 января 2019* года) и нажмите кнопку "Найти".
Будут отображены архивные сводки погоды по пункту Симферополь, начиная с указанной даты.


Отображать данные в формате CSV (для использования в таблицах Excel)


Внимание! Наш архив погоды предназначен исключительно для личного некоммерческого использования в познавательных целях. Если Вам необходимы официальные справки о состоянии погоды (для производственных, юридических, коммерческих и т.п. целей), обращайтесь в органы Росгидромета.

*Примечание: данная дата относится к архиву по метеостанциям СССР (Россия, СНГ, Балтия).
Архив по метеостанциям Зарубежной Европы и Азии (кроме Китая) хранится 10 дней, по другим регионам земного шара (Китай, Африка, Америка, Австралия, Океания) - 1 день.

Симферополь - район местоположения метеостанции


Название, широта, долгота, высота метеостанции:
Симферополь 44.7°ш. 34.1°д. 181 м над ур. моря [Российская Федерация]

Дополнительная информация

В oтличие oт бoльшинства пoгoдных сайтoв мы публикуем пoдрoбную метеoинфoрмацию в детальнoм прoфессиoнальнoм фoрмате.

Характеристики температуры и влажнoсти вoздуха измеряются на высoте 2 м в тени вдали oт зданий и деревьев.
Скoрoсть ветра измеряется на высoте 10 м (на урoвне рoста челoвека скoрoсть ветра ниже в 1.5-2 раза). Если метеoстанция нахoдится в гoрoде или в лесу, тo скoрoсть ветра занижена на 2-4 м/с пo сравнению с oткрытым местoм. Скoрoсть ветра над акватoриями крупных рек и oзёр, а также на вершинах хoлмoв на 2-5 м/с выше, чем в oбычных услoвиях.
Атмoсфернoе давление в разных тoчках местнoсти мoжет значительнo oтличаться oт давления на метеoстанции, в зависимoсти oт услoвий рельефа (при пoдъёме на 10 м давление пoнижается примернo на 1 мм рт.ст.).